GW6509 Weather Reports


time (UTC)temp
C
wind
direction
speed
KPH
gust
KPH
rain 1hr
cm
rain 24hr
cm
rain mn
cm
humidity
%
barometer
mb
20260906181346 37 78 3.2 3.2 0.00 0.00 0.00 40 1015.0
20260906180841 37 1 1.6 1.6 0.00 0.00 0.00 41 1014.9
20260906180335 37 37 1.6 1.6 0.00 0.00 0.00 38 1015.0
20260906175833 37 34 1.6 1.6 0.00 0.00 0.00 40 1015.1
20260906175328 36 101 0.0 1.6 0.00 0.00 0.00 42 1015.4
20260906174828 36 340 1.6 1.6 0.00 0.00 0.00 43 1015.3
20260906174327 36 109 3.2 3.2 0.00 0.00 0.00 42 1015.4
20260906173822 36 103 3.2 3.2 0.00 0.00 0.00 42 1015.4
20260906173318 36 84 4.8 4.8 0.00 0.00 0.00 42 1015.6
20260906172816 36 92 3.2 3.2 0.00 0.00 0.00 42 1015.6
20260906172313 36 149 3.2 3.2 0.00 0.00 0.00 43 1015.7
20260906171813 36 28 1.6 1.6 0.00 0.00 0.00 43 1015.8
20260906171308 36 104 3.2 3.2 0.00 0.00 0.00 44 1015.8
20260906170804 36 355 0.0 1.6 0.00 0.00 0.00 45 1016.0
20260906170300 36 60 3.2 3.2 0.00 0.00 0.00 45 1016.0
20260906165756 36 112 3.2 3.2 0.00 0.00 0.00 44 1016.0
20260906165256 36 329 0.0 0.0 0.00 0.00 0.00 45 1016.0
20260906164755 36 12 1.6 1.6 0.00 0.00 0.00 44 1016.1
20260906164250 36 86 3.2 4.8 0.00 0.00 0.00 45 1016.1
20260906163746 36 56 1.6 1.6 0.00 0.00 0.00 46 1016.2
20260906163242 36 104 1.6 1.6 0.00 0.00 0.00 46 1016.3
20260906162739 36 74 3.2 3.2 0.00 0.00 0.00 46 1016.0
20260906162233 35 78 4.8 4.8 0.00 0.00 0.00 48 1016.1
20260906161733 35 102 1.6 3.2 0.00 0.00 0.00 48 1016.0
20260906161232 35 76 1.6 1.6 0.00 0.00 0.00 47 1016.0
20260906160732 35 84 4.8 4.8 0.00 0.00 0.00 46 1016.1
20260906160231 35 14 1.6 1.6 0.00 0.00 0.00 49 1016.2
20260906155729 35 111 3.2 3.2 0.00 0.00 0.00 49 1016.2
20260906155224 34 335 0.0 1.6 0.00 0.00 0.00 51 1016.1
20260906154720 33 102 3.2 4.8 0.00 0.00 0.00 51 1015.8
20260906154214 33 121 3.2 4.8 0.00 0.00 0.00 51 1016.0
20260906153712 33 43 1.6 1.6 0.00 0.00 0.00 51 1015.9
20260906153208 33 51 0.0 1.6 0.00 0.00 0.00 51 1015.8
20260906152703 33 85 3.2 4.8 0.00 0.00 0.00 52 1016.0
20260906152203 33 331 0.0 0.0 0.00 0.00 0.00 54 1015.7
20260906151657 33 99 3.2 4.8 0.00 0.00 0.00 53 1015.9
20260906151153 33 32 1.6 1.6 0.00 0.00 0.00 54 1015.9
20260906150648 32 59 1.6 1.6 0.00 0.00 0.00 54 1015.8
20260906150144 32 75 1.6 3.2 0.00 0.00 0.00 56 1015.9
20260906145643 32 51 4.8 6.4 0.00 0.00 0.00 56 1015.7
20260906145142 32 85 1.6 3.2 0.00 0.00 0.00 56 1015.9
20260906144637 32 109 6.4 6.4 0.00 0.00 0.00 56 1015.9
20260906144132 31 71 3.2 3.2 0.00 0.00 0.00 57 1016.0
20260906143632 30 87 1.6 3.2 0.00 0.00 0.00 59 1016.0
20260906143129 30 100 3.2 4.8 0.00 0.00 0.00 59 1015.9
20260906142628 30 28 1.6 1.6 0.00 0.00 0.00 61 1016.1
20260906142124 30 68 0.0 1.6 0.00 0.00 0.00 61 1015.9
20260906141622 29 75 1.6 3.2 0.00 0.00 0.00 62 1015.9
20260906141118 29 98 4.8 6.4 0.00 0.00 0.00 62 1015.8
20260906140617 29 48 1.6 3.2 0.00 0.00 0.00 62 1016.0
20260906140112 29 38 1.6 1.6 0.00 0.00 0.00 63 1015.9
20260906135609 28 89 3.2 3.2 0.00 0.00 0.00 63 1015.7
20260906135105 28 36 0.0 1.6 0.00 0.00 0.00 64 1015.7
20260906134600 28 101 3.2 3.2 0.00 0.00 0.00 64 1015.8
20260906134100 28 43 1.6 1.6 0.00 0.00 0.00 65 1015.7
20260906133556 28 84 1.6 3.2 0.00 0.00 0.00 65 1015.7
20260906133051 28 47 1.6 1.6 0.00 0.00 0.00 66 1015.7
20260906132546 27 58 1.6 1.6 0.00 0.00 0.00 66 1015.7
20260906132041 27 18 0.0 1.6 0.00 0.00 0.00 66 1015.5
20260906131537 27 80 3.2 3.2 0.00 0.00 0.00 66 1015.4
20260906131032 27 96 3.2 4.8 0.00 0.00 0.00 67 1015.3
20260906130531 27 77 3.2 3.2 0.00 0.00 0.00 67 1015.3
20260906130027 27 68 3.2 3.2 0.00 0.00 0.00 67 1015.3
20260906125525 27 82 3.2 3.2 0.00 0.00 0.00 68 1015.2
20260906125024 27 74 1.6 1.6 0.00 0.00 0.00 68 1015.1
20260906124520 26 71 3.2 3.2 0.00 0.00 0.00 68 1015.1
20260906124015 26 91 1.6 1.6 0.00 0.00 0.00 69 1015.0
20260906123514 26 89 3.2 3.2 0.00 0.00 0.00 69 1015.2
20260906123009 26 98 3.2 4.8 0.00 0.00 0.00 70 1014.8
20260906122503 26 75 1.6 1.6 0.00 0.00 0.00 70 1014.9
20260906121959 26 62 1.6 3.2 0.00 0.00 0.00 70 1014.9
20260906121455 26 97 1.6 1.6 0.00 0.00 0.00 70 1014.7
20260906120952 26 97 1.6 1.6 0.00 0.00 0.00 70 1014.7
20260906120447 26 71 1.6 1.6 0.00 0.00 0.00 70 1014.7
20260906115943 26 87 1.6 3.2 0.00 0.00 0.00 70 1014.8
20260906115438 26 88 1.6 3.2 0.00 0.00 0.00 70 1014.9
20260906114939 26 63 1.6 3.2 0.00 0.00 0.00 70 1014.8
20260906114438 26 85 3.2 3.2 0.00 0.00 0.00 70 1014.6
20260906113934 26 89 3.2 3.2 0.00 0.00 0.00 69 1014.7
20260906113432 26 83 3.2 3.2 0.00 0.00 0.00 69 1014.8
20260906112928 26 99 3.2 4.8 0.00 0.00 0.00 69 1014.7
20260906112424 26 85 1.6 3.2 0.00 0.00 0.00 69 1014.7
20260906111919 26 71 3.2 3.2 0.00 0.00 0.00 69 1014.6
20260906111419 26 108 3.2 4.8 0.00 0.00 0.00 69 1014.8
20260906110914 26 120 3.2 3.2 0.00 0.00 0.00 68 1014.5
20260906110409 26 60 3.2 3.2 0.00 0.00 0.00 68 1014.5
20260906105908 26 88 3.2 3.2 0.00 0.00 0.00 68 1014.4
20260906105404 26 77 1.6 3.2 0.00 0.00 0.00 68 1014.5
20260906104900 26 100 1.6 1.6 0.00 0.00 0.00 68 1014.6
20260906104358 27 97 3.2 3.2 0.00 0.00 0.00 68 1014.5
20260906103857 26 78 1.6 3.2 0.00 0.00 0.00 68 1014.5
20260906103355 26 62 1.6 1.6 0.00 0.00 0.00 68 1014.5
20260906102852 27 69 1.6 1.6 0.00 0.00 0.00 68 1014.3
20260906102350 27 90 1.6 1.6 0.00 0.00 0.00 68 1014.3
20260906101846 27 47 1.6 1.6 0.00 0.00 0.00 67 1014.3
20260906101341 27 49 0.0 1.6 0.00 0.00 0.00 67 1014.5
20260906100837 27 43 0.0 1.6 0.00 0.00 0.00 67 1014.5
20260906100335 27 59 1.6 1.6 0.00 0.00 0.00 67 1014.2
20260906095831 27 43 1.6 1.6 0.00 0.00 0.00 67 1014.3
20260906095326 27 56 0.0 1.6 0.00 0.00 0.00 67 1014.3
20260906094826 27 54 1.6 1.6 0.00 0.00 0.00 67 1014.2
20260906094320 27 45 1.6 1.6 0.00 0.00 0.00 67 1014.1
20260906093817 27 103 1.6 1.6 0.00 0.00 0.00 67 1014.2
20260906093313 27 71 1.6 1.6 0.00 0.00 0.00 67 1014.3
20260906092808 27 51 0.0 1.6 0.00 0.00 0.00 67 1014.3
20260906092307 27 76 1.6 1.6 0.00 0.00 0.00 66 1014.2
20260906091803 27 56 1.6 1.6 0.00 0.00 0.00 66 1014.3
20260906091259 27 64 1.6 1.6 0.00 0.00 0.00 65 1014.4
20260906090755 27 36 0.0 1.6 0.00 0.00 0.00 65 1014.1
20260906090254 27 61 1.6 1.6 0.00 0.00 0.00 65 1014.3
20260906085754 27 45 0.0 1.6 0.00 0.00 0.00 65 1014.1
20260906085253 27 39 0.0 0.0 0.00 0.00 0.00 65 1014.0
20260906084748 27 59 1.6 1.6 0.00 0.00 0.00 65 1014.0
20260906084248 27 44 1.6 1.6 0.00 0.00 0.00 66 1013.9
20260906083743 27 40 0.0 1.6 0.00 0.00 0.00 66 1013.9
20260906083238 27 70 0.0 1.6 0.00 0.00 0.00 65 1013.9
20260906082733 27 44 0.0 1.6 0.00 0.00 0.00 65 1013.9
20260906082228 27 30 0.0 0.0 0.00 0.00 0.00 64 1013.8
20260906081724 27 30 0.0 0.0 0.00 0.00 0.00 63 1014.0
20260906081219 27 29 0.0 0.0 0.00 0.00 0.00 64 1013.9
20260906080716 27 29 0.0 0.0 0.00 0.00 0.00 64 1013.9
20260906080212 27 16 0.0 0.0 0.00 0.00 0.00 65 1013.9
20260906075712 27 16 0.0 0.0 0.00 0.00 0.00 66 1014.0
20260906075206 27 16 0.0 0.0 0.00 0.00 0.00 66 1013.8
20260906074701 27 16 0.0 0.0 0.00 0.00 0.00 66 1013.8
20260906074200 27 16 0.0 0.0 0.00 0.00 0.00 64 1013.8
20260906073655 27 17 0.0 0.0 0.00 0.00 0.00 64 1013.8
20260906073151 27 14 0.0 0.0 0.00 0.00 0.00 64 1013.9
20260906072647 28 14 0.0 0.0 0.00 0.00 0.00 63 1013.8
20260906072142 28 25 0.0 0.0 0.00 0.00 0.00 63 1013.7
20260906071638 28 26 0.0 0.0 0.00 0.00 0.00 62 1013.9
20260906071138 28 31 0.0 0.0 0.00 0.00 0.00 62 1013.9
20260906070635 28 57 0.0 1.6 0.00 0.00 0.00 62 1013.8
20260906070130 28 61 1.6 3.2 0.00 0.00 0.00 62 1013.8
20260906065630 28 57 1.6 1.6 0.00 0.00 0.00 62 1014.0
20260906065125 28 45 0.0 1.6 0.00 0.00 0.00 62 1014.2
20260906064620 28 51 0.0 1.6 0.00 0.00 0.00 62 1014.0
20260906064115 28 55 0.0 1.6 0.00 0.00 0.00 61 1014.3
20260906063610 28 37 0.0 1.6 0.00 0.00 0.00 61 1014.0
20260906063106 28 32 0.0 1.6 0.00 0.00 0.00 61 1014.2
20260906062602 28 32 0.0 0.0 0.00 0.00 0.00 61 1014.2
20260906062101 28 52 1.6 1.6 0.00 0.00 0.00 60 1014.1
20260906061557 29 74 1.6 3.2 0.00 0.00 0.00 60 1014.0
20260906061056 29 65 0.0 1.6 0.00 0.00 0.00 60 1014.1
20260906060553 29 87 1.6 3.2 0.00 0.00 0.00 60 1014.2
20260906060050 29 43 0.0 1.6 0.00 0.00 0.00 59 1014.2
20260906055546 29 32 0.0 0.0 0.00 0.00 0.00 59 1014.2
20260906055041 29 41 1.6 1.6 0.00 0.00 0.00 59 1014.2
20260906054541 29 36 0.0 0.0 0.00 0.00 0.00 59 1014.5
20260906054036 29 40 0.0 1.6 0.00 0.00 0.00 59 1014.5
20260906053532 30 60 1.6 1.6 0.00 0.00 0.00 59 1014.6
20260906053028 30 40 1.6 1.6 0.00 0.00 0.00 58 1014.4
20260906052523 30 39 0.0 1.6 0.00 0.00 0.00 58 1014.3
20260906052020 30 85 1.6 1.6 0.00 0.00 0.00 58 1014.4
20260906051516 30 51 1.6 1.6 0.00 0.00 0.00 58 1014.5
20260906051011 30 80 1.6 3.2 0.00 0.00 0.00 58 1014.3
20260906050506 30 73 1.6 3.2 0.00 0.00 0.00 58 1014.3
20260906050006 30 43 0.0 1.6 0.00 0.00 0.00 59 1014.2
20260906045504 30 56 0.0 1.6 0.00 0.00 0.00 59 1014.3
20260906045000 30 30 0.0 1.6 0.00 0.00 0.00 59 1014.4
20260906044455 30 29 0.0 1.6 0.00 0.00 0.00 59 1014.2
20260906043951 30 32 0.0 1.6 0.00 0.00 0.00 59 1014.2
20260906043446 30 66 1.6 1.6 0.00 0.00 0.00 59 1014.5
20260906042942 30 47 1.6 1.6 0.00 0.00 0.00 59 1014.2
20260906042441 30 55 1.6 1.6 0.00 0.00 0.00 58 1014.3
20260906041936 30 65 1.6 3.2 0.00 0.00 0.00 57 1014.1
20260906041432 30 102 1.6 1.6 0.00 0.00 0.00 57 1014.1
20260906040932 30 99 3.2 3.2 0.00 0.00 0.00 57 1014.0
20260906040427 30 60 1.6 1.6 0.00 0.00 0.00 57 1014.1
20260906035922 30 35 0.0 0.0 0.00 0.00 0.00 57 1014.2
20260906035418 31 74 1.6 1.6 0.00 0.00 0.00 56 1014.1
20260906034913 31 124 1.6 3.2 0.00 0.00 0.00 56 1014.0
20260906034413 31 74 1.6 1.6 0.00 0.00 0.00 56 1013.9
20260906033908 31 60 3.2 3.2 0.00 0.00 0.00 56 1014.0
20260906033408 31 71 1.6 3.2 0.00 0.00 0.00 56 1013.9
20260906032904 31 82 1.6 3.2 0.00 0.00 0.00 56 1013.8
20260906032400 31 76 3.2 3.2 0.00 0.00 0.00 56 1013.8
20260906031855 31 76 1.6 1.6 0.00 0.00 0.00 57 1013.8
20260906031350 31 44 1.6 1.6 0.00 0.00 0.00 57 1013.8
20260906030846 31 56 1.6 1.6 0.00 0.00 0.00 56 1013.9
20260906030341 31 28 0.0 0.0 0.00 0.00 0.00 56 1013.7
20260906025840 31 38 0.0 1.6 0.00 0.00 0.00 55 1013.7
20260906025334 31 57 1.6 1.6 0.00 0.00 0.00 55 1013.6
20260906024834 31 70 1.6 3.2 0.00 0.00 0.00 54 1013.4
20260906024333 32 75 1.6 3.2 0.00 0.00 0.00 54 1013.1
20260906023829 32 83 1.6 1.6 0.00 0.00 0.00 54 1013.4
20260906023325 32 79 3.2 3.2 0.00 0.00 0.00 53 1013.4
20260906022820 32 76 3.2 3.2 0.00 0.00 0.00 53 1013.1
20260906022315 32 47 3.2 4.8 0.00 0.00 0.00 53 1013.1
20260906021811 32 56 3.2 4.8 0.00 0.00 0.00 53 1013.0
20260906021310 32 67 1.6 1.6 0.00 0.00 0.00 52 1013.0
20260906020810 32 96 3.2 3.2 0.00 0.00 0.00 52 1013.0
20260906020310 32 94 1.6 1.6 0.00 0.00 0.00 52 1012.7
20260906015809 32 92 1.6 1.6 0.00 0.00 0.00 51 1012.9
20260906015309 32 112 0.0 1.6 0.00 0.00 0.00 51 1012.7
20260906014808 32 67 3.2 3.2 0.00 0.00 0.00 51 1012.7
20260906014304 32 92 3.2 3.2 0.00 0.00 0.00 51 1012.7
20260906013801 32 89 3.2 3.2 0.00 0.00 0.00 51 1012.5
20260906013301 33 116 1.6 3.2 0.00 0.00 0.00 51 1012.4
20260906012756 33 102 3.2 3.2 0.00 0.00 0.00 50 1012.4
20260906012251 33 76 1.6 3.2 0.00 0.00 0.00 50 1012.5
20260906011746 33 42 0.0 1.6 0.00 0.00 0.00 50 1012.4
20260906011246 33 36 0.0 1.6 0.00 0.00 0.00 49 1012.4
20260906010742 33 52 1.6 1.6 0.00 0.00 0.00 49 1012.2
20260906010238 33 84 1.6 1.6 0.00 0.00 0.00 48 1012.4
20260906005733 33 53 1.6 1.6 0.00 0.00 0.00 48 1012.3
20260906005232 33 108 3.2 3.2 0.00 0.00 0.00 47 1012.2
20260906004731 33 110 1.6 3.2 0.00 0.00 0.00 47 1012.3
20260906004226 33 23 0.0 1.6 0.00 0.00 0.00 46 1012.3
20260906003721 33 106 1.6 1.6 0.00 0.00 0.00 45 1012.4
20260906003217 33 341 0.0 0.0 0.00 0.00 0.00 43 1012.3
20260906002717 33 341 0.0 0.0 0.00 0.00 0.00 43 1012.2
20260906002212 33 341 0.0 0.0 0.00 0.00 0.00 43 1012.2
20260906001707 33 341 0.0 0.0 0.00 0.00 0.00 42 1012.2
20260906001207 34 341 0.0 0.0 0.00 0.00 0.00 41 1012.3
20260906000703 34 334 0.0 1.6 0.00 0.00 0.00 41 1012.1
20260906000158 35 325 0.0 0.0 0.00 0.00 0.00 41 1012.0
20260905235656 35 325 0.0 0.0 0.00 0.00 0.00 40 1012.3
20260905235152 35 325 0.0 0.0 0.00 0.00 0.00 39 1012.2
20260905234647 35 347 0.0 0.0 0.00 0.00 0.00 39 1012.2
20260905234143 35 347 0.0 0.0 0.00 0.00 0.00 38 1012.0
20260905233638 36 340 0.0 0.0 0.00 0.00 0.00 39 1012.1
20260905233137 36 336 0.0 0.0 0.00 0.00 0.00 37 1012.2
20260905232632 36 27 1.6 1.6 0.00 0.00 0.00 37 1012.2
20260905232129 36 19 0.0 0.0 0.00 0.00 0.00 36 1012.0
20260905231629 36 326 0.0 0.0 0.00 0.00 0.00 37 1012.1
20260905231125 36 97 4.8 4.8 0.00 0.00 0.00 36 1012.1
20260905230621 36 95 3.2 3.2 0.00 0.00 0.00 36 1012.1
20260905230119 36 101 1.6 3.2 0.00 0.00 0.00 36 1011.9
20260905225618 36 41 1.6 1.6 0.00 0.00 0.00 36 1012.2
20260905225114 36 359 0.0 1.6 0.00 0.00 0.00 36 1012.0
20260905224613 37 75 3.2 3.2 0.00 0.00 0.00 36 1012.0
20260905224113 37 32 0.0 0.0 0.00 0.00 0.00 36 1012.0
20260905223610 37 14 0.0 1.6 0.00 0.00 0.00 35 1012.0
20260905223106 37 87 1.6 1.6 0.00 0.00 0.00 36 1012.3
20260905222606 37 31 0.0 0.0 0.00 0.00 0.00 36 1012.1
20260905222101 37 87 4.8 4.8 0.00 0.00 0.00 34 1012.1
20260905221558 37 161 1.6 1.6 0.00 0.00 0.00 35 1012.3
20260905221054 38 62 3.2 4.8 0.00 0.00 0.00 34 1012.3
20260905220549 38 318 1.6 1.6 0.00 0.00 0.00 34 1012.5
20260905220045 38 14 1.6 1.6 0.00 0.00 0.00 33 1012.4
20260905215544 38 352 1.6 3.2 0.00 0.00 0.00 33 1012.4
20260905215040 38 328 1.6 1.6 0.00 0.00 0.00 33 1012.5
20260905214537 38 105 1.6 3.2 0.00 0.00 0.00 33 1012.5
20260905214037 38 324 1.6 1.6 0.00 0.00 0.00 32 1012.5
20260905213532 38 55 0.0 1.6 0.00 0.00 0.00 32 1012.5
20260905213027 38 17 0.0 1.6 0.00 0.00 0.00 32 1012.5
20260905212522 39 14 1.6 3.2 0.00 0.00 0.00 32 1012.7
20260905212021 38 65 1.6 1.6 0.00 0.00 0.00 32 1012.9
20260905211517 38 353 0.0 0.0 0.00 0.00 0.00 32 1012.8
20260905211013 38 97 3.2 4.8 0.00 0.00 0.00 33 1013.1
20260905210508 38 133 1.6 1.6 0.00 0.00 0.00 32 1012.9
20260905210008 39 341 0.0 0.0 0.00 0.00 0.00 32 1012.9
20260905205503 39 83 3.2 3.2 0.00 0.00 0.00 32 1013.0
20260905205001 38 330 0.0 0.0 0.00 0.00 0.00 33 1013.0
20260905204457 38 324 0.0 0.0 0.00 0.00 0.00 33 1013.1
20260905203956 39 302 0.0 1.6 0.00 0.00 0.00 34 1013.4
20260905203452 39 331 0.0 1.6 0.00 0.00 0.00 33 1013.5
20260905202947 38 300 0.0 0.0 0.00 0.00 0.00 34 1013.5
20260905202442 37 323 1.6 1.6 0.00 0.00 0.00 36 1013.7
20260905201938 38 7 0.0 1.6 0.00 0.00 0.00 34 1013.5
20260905201433 38 4 0.0 0.0 0.00 0.00 0.00 33 1013.7
20260905200933 40 358 0.0 0.0 0.00 0.00 0.00 31 1013.7
20260905200429 40 346 1.6 3.2 0.00 0.00 0.00 31 1013.8
20260905195927 40 257 3.2 3.2 0.00 0.00 0.00 31 1014.0
20260905195422 39 340 1.6 1.6 0.00 0.00 0.00 32 1013.8
20260905194918 39 133 3.2 3.2 0.00 0.00 0.00 33 1013.8
20260905194417 40 6 1.6 1.6 0.00 0.00 0.00 31 1014.0
20260905193917 40 322 1.6 1.6 0.00 0.00 0.00 32 1014.0
20260905193412 39 316 1.6 1.6 0.00 0.00 0.00 33 1014.2
20260905192907 38 19 1.6 1.6 0.00 0.00 0.00 33 1014.0
20260905192403 38 158 3.2 4.8 0.00 0.00 0.00 33 1014.2
20260905191903 39 300 1.6 1.6 0.00 0.00 0.00 33 1014.0
20260905191402 39 204 1.6 3.2 0.00 0.00 0.00 32 1014.1
20260905190856 38 231 1.6 1.6 0.00 0.00 0.00 35 1014.3
20260905190354 39 37 1.6 1.6 0.00 0.00 0.00 34 1014.2
20260905185853 38 7 1.6 1.6 0.00 0.00 0.00 33 1014.1
20260905185349 39 341 1.6 1.6 0.00 0.00 0.00 34 1014.5
20260905184847 38 310 0.0 1.6 0.00 0.00 0.00 35 1014.3
20260905184347 38 56 1.6 1.6 0.00 0.00 0.00 34 1014.6
20260905183845 38 166 0.0 1.6 0.00 0.00 0.00 34 1014.7
20260905183341 38 26 0.0 1.6 0.00 0.00 0.00 34 1014.7
20260905182842 38 61 1.6 3.2 0.00 0.00 0.00 33 1014.7
20260905182341 38 68 1.6 3.2 0.00 0.00 0.00 34 1014.8
20260905181837 38 71 3.2 3.2 0.00 0.00 0.00 34 1015.0